Location: Unspecified
(0.0000°N, 0.0000°E)
Time: 21:21:36
(UTC+00:00)

Vanguard 2 - Visible Passes

Search period start: 30 June 2016 00:00
Search period end: 10 July 2016 00:00
Orbit: 555 x 2940 km, 32.9° (Epoch: 29 June)

Date Brightness Start Highest point End Pass type
(mag) Time Alt. Az. Time Alt. Az. Time Alt. Az.
30 Jun 11.1 03:40:20 12° S 03:40:20 12° S 03:41:23 10° S visible
30 Jun 11.4 18:53:14 10° N 18:59:14 14° NNE 19:06:20 10° NE visible
30 Jun 10.6 20:59:21 10° NNW 21:12:48 43° NE 21:15:02 41° NE visible
30 Jun 11.0 23:09:05 10° NW 23:16:26 36° WNW 23:16:26 36° WNW visible
01 Jul 11.1 03:57:37 11° S 03:57:37 11° S 03:58:27 10° S visible
01 Jul 11.2 19:10:28 10° N 19:18:36 19° NNE 19:28:47 10° ENE visible
01 Jul 10.3 21:17:23 10° NW 21:31:36 55° NE 21:31:46 55° NE visible
01 Jul 11.3 23:27:54 10° WNW 23:33:10 27° WNW 23:33:10 27° WNW visible
02 Jul 10.9 19:27:58 10° NNW 19:37:41 26° NE 19:47:10 15° ENE visible
02 Jul 10.2 21:35:34 10° NW 21:48:34 66° N 21:48:34 66° N visible
02 Jul 11.5 23:47:05 10° WNW 23:49:59 18° WNW 23:49:59 18° WNW visible
03 Jul 10.7 19:45:40 10° NNW 19:56:31 35° NE 20:04:03 24° ENE visible
03 Jul 10.2 21:53:56 10° NW 22:05:27 66° NW 22:05:27 66° NW visible
04 Jul 11.8 00:06:39 10° W 00:06:52 11° W 00:06:52 11° W visible
04 Jul 10.4 20:03:30 10° NNW 20:15:12 45° NE 20:20:59 35° ENE visible
04 Jul 10.4 22:12:33 10° WNW 22:22:23 54° WNW 22:22:23 54° WNW visible
05 Jul 10.9 18:15:35 10° N 18:22:15 18° NE 18:30:51 10° ENE visible
05 Jul 10.1 20:21:31 10° NW 20:33:46 59° NE 20:38:00 49° E visible
05 Jul 10.8 22:31:25 10° WNW 22:39:25 40° W 22:39:25 40° W visible
06 Jul 11.3 03:22:06 10° S 03:22:06 10° S 03:22:14 10° S visible
06 Jul 10.7 18:32:51 10° NNW 18:41:01 26° NE 18:52:19 10° E visible
06 Jul 9.9 20:39:42 10° NW 20:52:20 75° NE 20:55:04 66° E visible
06 Jul 11.1 22:50:39 10° WNW 22:56:29 29° W 22:56:29 29° W visible
07 Jul 11.3 03:39:14 11° S 03:39:14 11° S 03:41:05 10° S visible
07 Jul 10.4 18:50:26 10° NNW 18:59:35 35° NE 19:10:46 15° E visible
07 Jul 9.8 20:58:06 10° NW 21:10:59 87° SW 21:12:12 81° SE visible
07 Jul 11.4 23:10:17 10° W 23:13:38 19° W 23:13:38 19° W visible
08 Jul 11.2 03:56:22 11° S 03:58:07 11° S 04:01:33 10° SSE visible
08 Jul 10.0 19:08:14 10° NNW 19:18:01 48° NE 19:27:57 22° E visible
08 Jul 10.0 21:16:46 10° WNW 21:29:23 70° SW 21:29:23 70° SW visible
08 Jul 11.7 23:30:24 10° W 23:30:50 11° W 23:30:50 11° W visible
09 Jul 11.1 04:13:30 11° SSW 04:18:14 13° S 04:22:53 10° SSE visible
09 Jul 9.8 19:26:15 10° NW 19:36:27 63° NE 19:45:11 30° ESE visible
09 Jul 10.3 21:35:42 10° WNW 21:46:38 53° SW 21:46:38 53° SW visible
